This is the latest recevied weather packets stored in our database for station/object S51UL-6. If no packets are shown the sender has not sent any weather packets the latest 1 day(s).
| Time | Temp. | Humidity | Pressure | Rain* | Wind** | Luminosity | Snow |
|---|---|---|---|---|---|---|---|
| 1777976312 | 24.44° C | 39% | 1011.5 hPa | 0 mm | 4.92 m/s, 158° | - | - |
| 1777976013 | 24.44° C | 38% | 1011.3 hPa | 0 mm | 4.02 m/s, 158° | - | - |
| 1777975712 | 25° C | 37% | 1011.4 hPa | 0 mm | 2.68 m/s, 180° | - | - |
| 1777975412 | 25° C | 38% | 1011.4 hPa | 0 mm | 2.68 m/s, 135° | - | - |
| 1777974812 | 25° C | 41% | 1011.2 hPa | 0 mm | 4.02 m/s, 158° | - | - |
| 1777974212 | 24.44° C | 41% | 1011.3 hPa | 0 mm | 4.02 m/s, 158° | - | - |
| 1777973912 | 24.44° C | 41% | 1011.3 hPa | 0 mm | 4.02 m/s, 180° | - | - |
| 1777973613 | 24.44° C | 42% | 1011.4 hPa | 0 mm | 4.92 m/s, 158° | - | - |
| 1777973313 | 24.44° C | 41% | 1011.4 hPa | 0 mm | 4.92 m/s, 158° | - | - |
| 1777973013 | 24.44° C | 43% | 1011.5 hPa | 0 mm | 4.47 m/s, 158° | - | - |
| 1777972412 | 23.89° C | 43% | 1011.5 hPa | 0 mm | 4.02 m/s, 135° | - | - |
| 1777971213 | 23.33° C | 45% | 1011.7 hPa | 0 mm | 4.02 m/s, 180° | - | - |
| 1777970613 | 22.78° C | 45% | 1011.7 hPa | 0 mm | 3.58 m/s, 135° | - | - |
| 1777970314 | 22.78° C | 45% | 1011.7 hPa | 0 mm | 4.02 m/s, 158° | - | - |
| 1777969713 | 22.78° C | 46% | 1011.6 hPa | 0 mm | 5.36 m/s, 158° | - | - |
| 1777969413 | 22.78° C | 46% | 1011.8 hPa | 0 mm | 3.58 m/s, 158° | - | - |
| 1777969113 | 22.78° C | 45% | 1012 hPa | 0 mm | 3.13 m/s, 158° | - | - |
| 1777968513 | 22.22° C | 48% | 1011.9 hPa | 0 mm | 3.13 m/s, 135° | - | - |
| 1777968213 | 21.67° C | 48% | 1011.9 hPa | 0 mm | 2.68 m/s, 135° | - | - |
| 1777967913 | 21.67° C | 48% | 1011.8 hPa | 0 mm | 3.13 m/s, 135° | - | - |
| 1777967614 | 21.67° C | 49% | 1011.9 hPa | 0 mm | 3.58 m/s, 158° | - | - |
| 1777967312 | 21.67° C | 50% | 1012.1 hPa | 0 mm | 2.68 m/s, 158° | - | - |
| 1777967014 | 20.56° C | 52% | 1012.1 hPa | 0 mm | 2.68 m/s, 158° | - | - |
| 1777966713 | 20.56° C | 52% | 1012.3 hPa | 0 mm | 2.68 m/s, 135° | - | - |
| 1777966415 | 20° C | 52% | 1012.3 hPa | 0 mm | 3.13 m/s, 180° | - | - |
* Rain latest hour (hover to see other rain measurements)
** Current wind speed in m/s (hover to see current wind gust speed)